Location: Ailly
(50.0793°N, 1.9944°E)
Time: 19:58:35
(UTC+00:00)

IRS-1D - Pass Details

Date: 15 January 2026
Orbit: 737 x 810 km, 98.8° (Epoch: 14 February)

Event Time Altitude Azimuth Distance (km) Brightness Sun altitude
Rises 05:20:04 0° 14° (NNE) 3,329 6.9 -22.6°
Reaches altitude 10° 05:22:24 10° 13° (NNE) 2,400 6.1 -22.2°
Maximum altitude 05:27:43 79° 288° (WNW) 832 3.5 -21.3°
Drops below altitude 10° 05:33:01 10° 203° (SSW) 2,390 5.9 -20.5°
Sets 05:35:21 0° 202° (SSW) 3,315 6.7 -20.1°
